[[{"header":{"parameterUnit":"m.s-1","parameterCategory":1,"la1":30.2992,"la2":30.254,"lo1":-89.0895,"lo2":-89.0443,"dy":0.0025,"dx":0.0025,"nx":19,"ny":19,"refTime":"2026-03-18T21:00:00:Z","depth":0,"parameterNumber":2,"parameterNumberName":"U-component_of_WINDS"},"data":[0,0,0,1.2374,1.2375,1.2433,1.2433,1.2493,1.2493,0,0,0,0,0,0,0,0,0,0,0,1.2349,1.2349,1.2374,1.2375,1.2433,1.2433,1.2493,1.2493,0,0,0,0,0,0,0,0,0,0,0,1.2349,1.2349,1.235,1.2375,1.2433,1.2433,1.2493,1.2454,0,0,0,0,0,0,0,0,0,0,1.24,1.2371,1.2349,1.235,1.2375,1.2433,1.2433,1.2452,1.2456,1.2461,0,1.2464,0,1.248,1.2497,1.2497,0,0,0,1.238,1.2367,1.2389,1.235,1.2376,1.2433,1.2408,1.2455,1.2459,1.2466,1.2465,1.2468,1.2481,1.2497,1.2497,1.2508,1.2507,0,0,1.2377,1.2356,1.2386,1.2392,1.2384,1.2406,1.241,1.2458,1.2455,1.2466,1.247,1.2482,1.2497,1.2497,1.2508,1.2507,0,0,0,1.2364,1.2353,1.2375,1.2389,1.2401,1.2408,1.2412,1.2453,1.2461,1.247,1.2482,1.2497,1.2498,1.2508,1.2508,1.2476,0,0,0,1.2362,1.2346,1.2373,1.2361,1.24,1.2428,1.2406,1.2458,1.2464,1.2482,1.2497,1.2498,1.2508,1.2508,1.2478,1.2465,0,0,0,1.2348,1.2344,1.235,1.2359,1.2384,1.2428,1.2439,1.246,1.2471,1.2497,1.2499,1.2508,1.2508,1.2479,1.2467,1.246,0,0,0,1.2326,1.2323,1.2349,1.235,1.2383,1.2408,1.2439,1.2459,1.2477,1.2498,1.2508,1.2508,1.2479,1.2468,1.2461,1.2448,1.2442,0,0,1.2311,1.2321,1.2323,1.2348,1.2363,1.2401,1.2411,1.2448,1.247,1.2493,1.2494,1.2477,1.2467,1.246,1.2415,1.241,0,0,0,1.231,1.2311,1.232,1.2336,1.2364,1.2385,1.2423,1.2436,1.2456,1.2478,1.2474,1.2469,1.2465,1.246,1.2456,1.2453,1.2505,1.2505,1.2505,1.2258,1.2285,1.2289,1.2322,1.2337,1.2374,1.2388,1.2412,1.2436,1.2434,1.2441,1.2411,1.2404,1.2401,1.2397,1.2438,1.2438,1.2438,1.2438,1.2236,1.224,1.227,1.2285,1.2312,1.2325,1.2359,1.2375,1.2389,1.2409,1.2407,1.2424,1.2394,1.2392,1.2436,1.2436,1.2436,1.2437,1.2437,1.2203,1.221,1.2225,1.2249,1.2264,1.2298,1.2309,1.2334,1.2358,1.2357,1.2365,1.2365,1.2367,1.2359,1.2359,1.2359,1.2359,1.2359,1.2358,1.2163,1.2181,1.2188,1.2215,1.2227,1.2245,1.228,1.2293,1.2312,1.2329,1.233,1.2351,1.2387,1.2394,1.2357,1.2357,1.2357,1.2358,1.2358,1.2128,1.2139,1.2149,1.2161,1.2193,1.2204,1.2236,1.2257,1.2271,1.2275,1.2297,1.2319,1.2331,1.2335,1.2341,1.2293,1.2293,1.2293,1.2293,1.2099,1.2107,1.2122,1.2138,1.2157,1.2186,1.2193,1.2219,1.2248,1.2257,1.2268,1.2278,1.2281,1.2291,1.2296,1.2302,1.2245,1.2245,1.2245,1.2078,1.2089,1.2091,1.2119,1.2145,1.2166,1.2173,1.2188,1.2223,1.2243,1.2264,1.2266,1.2283,1.2288,1.2308,1.2315,1.2326,0,0]},{"header":{"parameterUnit":"m.s-1","parameterCategory":1,"la1":30.2992,"la2":30.254,"lo1":-89.0895,"lo2":-89.0443,"dy":0.0025,"dx":0.0025,"nx":19,"ny":19,"refTime":"2026-03-18T21:00:00:Z","depth":0,"parameterNumber":3,"parameterNumberName":"V-component_of_WINDS"},"data":[0,0,0,1.8478,1.8478,1.8433,1.8433,1.837,1.8369,0,0,0,0,0,0,0,0,0,0,0,1.8491,1.849,1.8479,1.8477,1.8433,1.8433,1.837,1.8369,0,0,0,0,0,0,0,0,0,0,0,1.8491,1.8491,1.849,1.8477,1.8433,1.8433,1.837,1.8405,0,0,0,0,0,0,0,0,0,0,1.8449,1.8461,1.8491,1.849,1.8477,1.8433,1.8433,1.8407,1.8403,1.8389,0,1.8378,0,1.8373,1.8365,1.8365,0,0,0,1.8477,1.8464,1.8453,1.849,1.8477,1.8433,1.8453,1.8405,1.84,1.8383,1.8377,1.8375,1.8372,1.8365,1.8364,1.8286,1.8286,0,0,1.848,1.8482,1.8456,1.845,1.8459,1.8454,1.8452,1.8402,1.8394,1.8377,1.8373,1.8371,1.8364,1.8364,1.8287,1.8286,0,0,0,1.8487,1.8484,1.8474,1.8453,1.8445,1.8453,1.845,1.8397,1.8393,1.8373,1.837,1.8364,1.8363,1.8287,1.8286,1.8271,0,0,0,1.8488,1.8488,1.8475,1.8476,1.8446,1.8421,1.8445,1.8397,1.8391,1.837,1.8364,1.8362,1.8287,1.8287,1.8272,1.8262,0,0,0,1.8494,1.8488,1.8482,1.8476,1.8457,1.8422,1.8416,1.8396,1.8389,1.8365,1.8362,1.8288,1.8287,1.8273,1.8264,1.8241,0,0,0,1.85,1.8468,1.8482,1.8445,1.8457,1.8413,1.8416,1.8382,1.8359,1.8364,1.8287,1.8287,1.8274,1.8265,1.8243,1.8222,1.8214,0,0,1.8461,1.8464,1.8442,1.8453,1.8407,1.842,1.8371,1.8347,1.8341,1.8304,1.8302,1.8272,1.8264,1.8242,1.8171,1.8165,0,0,0,1.843,1.8414,1.8401,1.8381,1.8363,1.8346,1.833,1.8321,1.8289,1.8324,1.8258,1.8253,1.824,1.823,1.8224,1.8212,1.8282,1.8283,1.8283,1.8376,1.8373,1.8336,1.8326,1.8306,1.829,1.8272,1.8256,1.8258,1.8242,1.8231,1.8189,1.8177,1.8173,1.816,1.8221,1.822,1.822,1.822,1.8317,1.8293,1.8297,1.8263,1.8258,1.8228,1.821,1.8212,1.8181,1.8197,1.8185,1.8201,1.8166,1.8154,1.8219,1.8219,1.822,1.822,1.822,1.8281,1.8269,1.8259,1.8228,1.8204,1.8195,1.8166,1.8163,1.816,1.8148,1.8134,1.8134,1.8133,1.8142,1.8142,1.8142,1.8142,1.8141,1.8141,1.8246,1.8236,1.8213,1.8191,1.8177,1.8158,1.814,1.8125,1.8107,1.8107,1.8107,1.8108,1.8164,1.8178,1.8139,1.8139,1.814,1.814,1.814,1.8185,1.8198,1.8163,1.8149,1.8122,1.8097,1.8094,1.8063,1.805,1.8036,1.804,1.8083,1.8084,1.8088,1.8099,1.8043,1.8043,1.8043,1.8043,1.8153,1.8154,1.8117,1.8094,1.8071,1.8065,1.8021,1.8007,1.7994,1.7985,1.7993,1.8007,1.8012,1.8011,1.8016,1.8026,1.7952,1.7952,1.7952,1.8114,1.8113,1.8079,1.8068,1.8047,1.8028,1.7987,1.7958,1.7946,1.7948,1.7977,1.7981,1.8004,1.8013,1.8015,1.8024,1.8042,0,0]}]]